This is the latest recevied weather packets stored in our database for station/object DM4XI-13. If no packets are shown the sender has not sent any weather packets the latest 10 day(s).
| Time | Temp. | Humidity | Pressure | Rain* | Wind** | Luminosity | Snow |
|---|---|---|---|---|---|---|---|
| 1778259180 | 17.22° C | 50% | 1014.2 hPa | 0 mm | 0.45 m/s, 230° | 65 W/m² | - |
| 1778259119 | 17.22° C | 49% | 1014.1 hPa | 0 mm | 0.45 m/s, 228° | 54 W/m² | - |
| 1778259058 | 17.22° C | 48% | 1014 hPa | 0 mm | 0.45 m/s, 212° | 44 W/m² | - |
| 1778258997 | 17.22° C | 49% | 1014 hPa | 0 mm | 0 m/s | 44 W/m² | - |
| 1778258936 | 17.22° C | 49% | 1014 hPa | 0 mm | 0 m/s | 45 W/m² | - |
| 1778258875 | 17.22° C | 50% | 1014 hPa | 0 mm | 0 m/s | 50 W/m² | - |
| 1778258814 | 17.22° C | 48% | 1014.2 hPa | 0 mm | 0.45 m/s, 64° | 111 W/m² | - |
| 1778258753 | 17.22° C | 48% | 1014.1 hPa | 0 mm | 0.89 m/s, 327° | 112 W/m² | - |
| 1778258692 | 17.22° C | 48% | 1014.2 hPa | 0 mm | 0 m/s | 80 W/m² | - |
| 1778258632 | 17.78° C | 48% | 1014 hPa | 0 mm | 0.45 m/s, 290° | 50 W/m² | - |
| 1778258570 | 17.78° C | 47% | 1014.2 hPa | 0 mm | 0.89 m/s, 339° | 50 W/m² | - |
| 1778258509 | 17.78° C | 47% | 1014.1 hPa | 0 mm | 0.45 m/s, 15° | 73 W/m² | - |
| 1778258448 | 17.78° C | 47% | 1014 hPa | 0 mm | 0.89 m/s, 285° | 129 W/m² | - |
| 1778258387 | 17.78° C | 47% | 1014.1 hPa | 0 mm | 0.45 m/s, 13° | 123 W/m² | - |
| 1778258326 | 17.78° C | 47% | 1014.2 hPa | 0 mm | 0.89 m/s, 18° | 116 W/m² | - |
| 1778258265 | 17.78° C | 47% | 1014.1 hPa | 0 mm | 0 m/s | 134 W/m² | - |
| 1778258204 | 17.78° C | 46% | 1014 hPa | 0 mm | 0.45 m/s, 213° | 124 W/m² | - |
| 1778258143 | 17.78° C | 46% | 1014.1 hPa | 0 mm | 0.45 m/s, 228° | 127 W/m² | - |
| 1778258082 | 17.78° C | 47% | 1014.1 hPa | 0 mm | 0.45 m/s, 228° | 59 W/m² | - |
| 1778258021 | 17.78° C | 47% | 1014.2 hPa | 0 mm | 0.89 m/s, 173° | 135 W/m² | - |
| 1778257960 | 17.78° C | 47% | 1014.1 hPa | 0 mm | 0.89 m/s, 356° | 143 W/m² | - |
| 1778257899 | 17.78° C | 47% | 1014 hPa | 0 mm | 0 m/s | 145 W/m² | - |
| 1778257838 | 17.78° C | 47% | 1014.1 hPa | 0 mm | 0 m/s | 147 W/m² | - |
| 1778257777 | 17.78° C | 47% | 1014 hPa | 0 mm | 0.45 m/s, 160° | 148 W/m² | - |
| 1778257716 | 17.78° C | 46% | 1014.3 hPa | 0 mm | 0.45 m/s, 15° | 154 W/m² | - |
* Rain latest hour (hover to see other rain measurements)
** Current wind speed in m/s (hover to see current wind gust speed)